Terminal Aerodrome Forecast
Issued by NWS Kansas City/Pleasant Hill, MO

Home | Current Version | Previous Version | Text Only | Print | Product List | Glossary On
Versions: 1 2 3 4 5 6 7 8 9 10 11 12 13 14 15 16
000
FTUS43 KEAX 021120
TAFMCI
TAF
KMCI 021120Z 0212/0312 22007KT P6SM SCT200
     FM021700 22012KT P6SM FEW040
     FM022300 22006KT P6SM SCT250=

USA.gov is the U.S. government's official web portal to all federal, state and local government web resources and services.